{"data":{"norad_id":52281,"epoch":"2026-05-25T02:43:22.128384Z","epoch_age_seconds":55359,"freshness":"FRESH","line1":"1 52281U 22041W   26145.11345056 -.00001207  00000+0 -57724-4 0  9990","line2":"2 52281  53.2131 126.0390 0001276  46.1185 313.9912 15.08845773225901","mean_motion":15.08845773,"eccentricity":0.0001276,"inclination_deg":53.2131,"raan_deg":126.039,"arg_perigee_deg":46.1185,"mean_anomaly_deg":313.9912,"bstar":-5.7724e-5,"rev_number":22590,"period_min":95.43718952381,"perigee_km":538.84302398285,"apogee_km":540.60846255493,"semimajor_km":6917.8627432689,"source":"CELESTRAK","updated_at":"2026-05-25T13:38:17.083881Z"}}